This is the latest recevied weather packets stored in our database for station/object 9W2CHF-3. If no packets are shown the sender has not sent any weather packets the latest 10 day(s).
| Time | Temp. | Humidity | Pressure | Rain* | Wind** | Luminosity | Snow |
|---|---|---|---|---|---|---|---|
| 1777672012 | 27.22° C | 100% | 1008.9 hPa | - | - | - | - |
| 1777670812 | 27.22° C | 100% | 1008.9 hPa | - | - | - | - |
| 1777669612 | 27.22° C | 100% | 1008.9 hPa | - | - | - | - |
| 1777668412 | 27.78° C | 100% | 1009.1 hPa | - | - | - | - |
| 1777667212 | 27.78° C | 100% | 1009.3 hPa | - | - | - | - |
| 1777666012 | 27.78° C | 100% | 1009.4 hPa | - | - | - | - |
| 1777663611 | 28.33° C | 100% | 1009.7 hPa | - | - | - | - |
| 1777661211 | 27.78° C | 100% | 1010.1 hPa | - | - | - | - |
| 1777660014 | 27.78° C | 100% | 1010.4 hPa | - | - | - | - |
| 1777658814 | 28.33° C | 100% | 1010.7 hPa | - | - | - | - |
| 1777656414 | 27.78° C | 100% | 1010.9 hPa | - | - | - | - |
| 1777655214 | 28.89° C | 99% | 1011.1 hPa | - | - | - | - |
| 1777652814 | 28.89° C | 100% | 1011.8 hPa | - | - | - | - |
| 1777651614 | 28.89° C | 100% | 1011.6 hPa | - | - | - | - |
| 1777650414 | 28.89° C | 100% | 1011.7 hPa | - | - | - | - |
| 1777649214 | 29.44° C | 99% | 1011.7 hPa | - | - | - | - |
| 1777648014 | 29.44° C | 100% | 1011.7 hPa | - | - | - | - |
| 1777646814 | 28.89° C | 100% | 1011.6 hPa | - | - | - | - |
| 1777645614 | 29.44° C | 100% | 1011.6 hPa | - | - | - | - |
| 1777644413 | 29.44° C | 100% | 1011.3 hPa | - | - | - | - |
| 1777643213 | 30° C | 99% | 1011.1 hPa | - | - | - | - |
| 1777642013 | 30.56° C | 94% | 1010.8 hPa | - | - | - | - |
| 1777640813 | 30.56° C | 97% | 1010.5 hPa | - | - | - | - |
| 1777638413 | 30.56° C | 93% | 1010.1 hPa | - | - | - | - |
| 1777637213 | 31.11° C | 87% | 1009.7 hPa | - | - | - | - |
* Rain since midnight (hover to see other rain measurements)
** Current wind speed in m/s (hover to see current wind gust speed)